Tracking 25734 objects as of 28-May-2022
HD Live streaming from Space Station
objects crossing your sky now

NOAA 17 DEB

Track NOAA 17 DEB now!
10-day predictions


NORAD ID: 48765
Int'l Code: 2002-032DB
Perigee: 767.5 km
Apogee: 800.3 km
Inclination: 98.7 °
Period: 100.4 minutes
Semi major axis: 7154 km
RCS: Unknown
Launch date: June 24, 2002
Source: United States (US)
Launch site: AIR FORCE WESTERN TEST RANGE (AFWTR)

Note: This is SATELLITE DEBRIS
aabbcc
Your satellite tracking list
Your tracking list is empty




NASA's NSSDC Master Catalog

Two Line Element Set (TLE):
1 48765U 02032DA  22148.11646607  .00004485  00000-0  16011-2 0  9997
2 48765  98.6563  99.4319 0022868 123.2337 237.1043 14.34487600 58382
Source of the keplerian elements: AFSPC